Find Starlink 11665

NORAD ID: 63549 Int'l Des: 2025-075 Owner: SPXS Country: US Constellation: starlink operational
LEOCIRCULAR

Live-Position

3D-Globus wird geladen...

Über Starlink 11665

Beschreibung wird geladen...

Nächste Überflüge

Passes for default location (London). Set your location on the main map for personalized predictions.

Höhenverlauf

Loading altitude history...

Zweizeiliger Elementsatz

1 63549U 25075B 26123.46254522 .00193026 00000-0 14671-2 0 9992
2 63549 42.9978 183.5881 0002035 253.1441 106.9203 15.70936463 61868
Epoch: 3. Mai 2026 • Age: 13 hours

Aktueller Status

Höhe 367.6 km
Geschwindigkeit 7.69 km/s
Subsatellitenpunkt -42.95°S, 131.92°W
Startdatum 13. Apr. 2025
Alter 1 years
Typ internet

Technische Details

Klassifizierung Payload
Masse 960.00 kg
Trockenmasse 910.00 kg
Gesamtmasse 960.00 kg
Länge 0.30 m
Durchmesser 4.10 m
Spannweite 29.00 m
Form Box + pan
Hersteller SPXS
Bus-Typ Starlink V2MD
Phasenstatus In Orbit
Besitzer/Staat SPXS/US

Most Searched